User: anonymous   Login
Location: Unspecified
(0.0000°N, 0.0000°E)
Time: 15:34:57
(UTC+00:00)
Language:

USA 171 - Orbit

View from above orbital plane
View from above orbital plane
View from above satellite
View from above satellite

Ground track
Ground track

The orbit data is extracted from the following two-line orbital elements,

1 27937U 03041A   17193.18776541 0.00000000  00000-0  00000-0 0    09
2 27937   9.3830  65.9741 0043033 208.2648 151.4479  1.00270000    09
Epoch (UTC): 12 July 2017 04:30:22
Eccentricity: 0.0043033
inclination: 9.3830°
perigee height: 35605 km
apogee height: 35968 km
right ascension of ascending node: 65.9741°
argument of perigee: 208.2648°
revolutions per day: 1.00270000
mean anomaly at epoch: 151.4479°
orbit number at epoch: 0

The dashed part of the orbit path shows where the satellite is in the earth's shadow,  

DLR